Weather in Doetinchem

Netherlands     51°57′56″N   6°17′05″E
temp.,
°C
wind,
m/s
gust,
m/s
humid.,
%
clouds,
%
prec.,
mm/h
press.,
hPa
HPBL,
m
26 june, sun
sun2623:00+17w4894100 1.2 1012213
02:00+17s2392100 1.7 101282
05:00+15sw369861 0.0 1013261
08:00+16sw3587100 0.0 1014359
11:00+20sw566098 0.0 10161137
14:00+21wsw3452100 0.0 10161303
17:00+20sse5462100 0.0 1016688
20:00+19sse337098 0.0 1016514
27 june, mon
mon2723:00+15se2291100 0.0 101620
02:00+15ese2391100 0.2 101665
05:00+15ese129495 0.0 101551
08:00+16ssw2389100 0.0 1015153
11:00+20sw4567100 0.1 1016884
14:00+22wsw675386 0.3 10171497
17:00+21wsw7755100 0.0 10181321
20:00+19wsw226528 0.0 1019128
28 june, tue
tue2823:00+17w34655 0.0 102090
02:00+15w116657 0.0 102113
05:00+12sw22805 0.0 102112
08:00+16wsw22651 0.0 1022220
11:00+20ssw23490 0.0 10221014
14:00+24s35400 0.0 10202042
17:00+25s24375 0.0 10182214
20:00+24ssw11513 0.0 1017176
29 june, wed
wed2923:00+18e225970 0.0 101811
02:00+16e347477 0.0 101750
05:00+15sse12866 0.0 101611
08:00+19sse34665 0.0 1016205
11:00+25ssw344772 0.0 1016831
14:00+27ssw3438100 0.0 10152086
17:00+28sw343464 0.0 10142285
20:00+25ese235597 0.0 101384
30 june, thu
thu3023:00+20e337411 0.0 101426
02:00+18e228212 0.0 101311
05:00+17e348220 0.0 101250
08:00+22sse346999 0.0 1012219
11:00+25se346181 0.1 1012643
14:00+28ese46498 0.1 1011974
17:00+31ese463346 0.0 10092668
20:00+28e594485 0.0 1007486